TimeMDT,TemperatureF,Dew PointF,Humidity,Sea Level PressureIn,VisibilityMPH,Wind Direction,Wind SpeedMPH,Gust SpeedMPH,PrecipitationIn,Events,Conditions,WindDirDegrees,DateUTC
12:15 AM,46.4,33.8,62,30.33,10.0,NNW,8.1,-,N/A,,Partly Cloudy,340,2013-05-12 06:15:00
12:55 AM,46.4,33.8,62,30.33,10.0,NE,3.5,-,N/A,,Scattered Clouds,50,2013-05-12 06:55:00
1:35 AM,42.8,33.8,70,30.34,10.0,North,9.2,-,N/A,,Scattered Clouds,350,2013-05-12 07:35:00
1:55 AM,42.8,33.8,70,30.35,10.0,North,8.1,-,N/A,,Clear,360,2013-05-12 07:55:00
2:35 AM,42.8,33.8,70,30.35,10.0,North,3.5,-,N/A,,Overcast,10,2013-05-12 08:35:00
2:55 AM,41.0,33.8,76,30.35,10.0,Calm,Calm,-,N/A,,Mostly Cloudy,0,2013-05-12 08:55:00
3:15 AM,41.0,33.8,76,30.35,10.0,NNW,5.8,-,N/A,,Partly Cloudy,340,2013-05-12 09:15:00
3:35 AM,39.2,33.8,81,30.35,10.0,North,5.8,-,N/A,,Scattered Clouds,360,2013-05-12 09:35:00
3:55 AM,41.0,33.8,76,30.35,10.0,North,5.8,-,N/A,,Mostly Cloudy,10,2013-05-12 09:55:00
4:15 AM,42.8,33.8,70,30.35,10.0,North,6.9,-,N/A,,Overcast,10,2013-05-12 10:15:00
5:35 AM,39.2,33.8,81,30.35,10.0,North,5.8,-,N/A,,Mostly Cloudy,360,2013-05-12 11:35:00
5:55 AM,37.4,33.8,87,30.35,10.0,North,4.6,-,N/A,,Scattered Clouds,360,2013-05-12 11:55:00
6:51 AM,39.2,33.8,81,30.36,10.0,Calm,Calm,-,N/A,,Clear,0,2013-05-12 12:51:00
7:52 AM,46.4,33.8,62,30.37,10.0,Calm,Calm,-,N/A,,Clear,0,2013-05-12 13:52:00
8:51 AM,51.8,33.8,50,30.36,10.0,Calm,Calm,-,N/A,,Clear,0,2013-05-12 14:51:00
9:52 AM,55.4,33.8,44,30.35,10.0,Calm,Calm,-,N/A,,Clear,0,2013-05-12 15:52:00
10:51 AM,60.8,35.6,39,30.34,10.0,Calm,Calm,-,N/A,,Clear,0,2013-05-12 16:51:00
11:52 AM,66.2,35.6,32,30.31,10.0,SSE,3.5,-,N/A,,Clear,160,2013-05-12 17:52:00
12:54 PM,71.6,32.0,23,30.29,10.0,West,11.5,20.7,N/A,,Partly Cloudy,260,2013-05-12 18:54:00
1:51 PM,71.6,32.0,23,30.29,10.0,South,9.2,-,N/A,,Clear,190,2013-05-12 19:51:00
2:59 PM,71.6,30.2,22,30.28,10.0,SSW,9.2,-,N/A,,Scattered Clouds,210,2013-05-12 20:59:00
3:53 PM,73.4,30.2,20,30.26,10.0,West,10.4,19.6,N/A,,Clear,260,2013-05-12 21:53:00
4:53 PM,73.4,28.4,19,30.24,10.0,Calm,Calm,-,N/A,,Partly Cloudy,0,2013-05-12 22:53:00
5:51 PM,71.6,30.2,22,30.23,10.0,West,9.2,17.3,N/A,,Partly Cloudy,270,2013-05-12 23:51:00
6:51 PM,73.4,33.8,23,30.22,10.0,WSW,5.8,-,N/A,,Clear,240,2013-05-13 00:51:00
7:55 PM,71.6,33.8,25,30.22,10.0,SW,6.9,-,N/A,,Clear,220,2013-05-13 01:55:00
8:51 PM,64.4,33.8,32,30.22,10.0,SW,4.6,-,N/A,,Partly Cloudy,220,2013-05-13 02:51:00
8:55 PM,60.8,33.8,36,30.22,10.0,West,3.5,-,N/A,,Partly Cloudy,270,2013-05-13 02:55:00
9:15 PM,60.8,33.8,36,30.22,10.0,West,3.5,-,N/A,,Clear,260,2013-05-13 03:15:00
9:35 PM,60.8,33.8,36,30.23,10.0,Calm,Calm,-,N/A,,Scattered Clouds,0,2013-05-13 03:35:00
9:55 PM,60.8,33.8,36,30.23,10.0,Calm,Calm,-,N/A,,Partly Cloudy,0,2013-05-13 03:55:00
10:15 PM,59.0,33.8,39,30.24,10.0,Calm,Calm,-,N/A,,Clear,0,2013-05-13 04:15:00
10:35 PM,57.2,33.8,41,30.24,10.0,Calm,Calm,-,N/A,,Clear,0,2013-05-13 04:35:00
11:35 PM,53.6,35.6,51,30.25,10.0,Calm,Calm,-,N/A,,Clear,0,2013-05-13 05:35:00
11:55 PM,53.6,35.6,51,30.25,10.0,Calm,Calm,-,N/A,,Clear,0,2013-05-13 05:55:00